Terminal Aerodrome Forecast
Issued by NWS Blacksburg, VA

Current Version | Previous Version | Graphics & Text | Print | Product List | Glossary On
Versions: 1 2 3 4 5 6 7 8 9 10 11 12 13 14 15 16 17 18 19 20 21 22 23 24 25
000
FTUS41 KRNK 262329
TAFBLF
TAF
KBLF 262329Z 2700/2724 19006KT P6SM VCSH SCT040 BKN080
     FM270500 20009KT P6SM BKN050 BKN120
     FM270900 23006KT 4SM -SHRA SCT015 OVC040
     FM271400 26008KT P6SM SCT025 BKN060=

USA.gov is the U.S. government's official web portal to all federal, state and local government web resources and services.